Location: B?dimalle
(17.1788°N, 80.5377°E)
Time: 10:12:01
(UTC+00:00)

Tiros 1 despin weight - Pass Details

Date: 20 February 2026
Orbit: 556 x 593 km, 48.2° (Epoch: 10 March)

Event Time Altitude Azimuth Distance (km) Brightness Sun altitude
Rises 05:37:33 0° 191° (SSW) 2,773 ? 56.5°
Reaches altitude 10° 05:40:21 10° 173° (S) 1,869 ? 56.9°
Maximum altitude 05:43:22 19° 128° (SE) 1,385 ? 57.2°
Drops below altitude 10° 05:46:22 10° 83° (E) 1,854 ? 57.6°
Sets 05:49:08 0° 65° (ENE) 2,744 ? 58.0°
